Home   Weather   Battambang   Past weeks

Flag for Cambodia Past Weather in Battambang, Cambodia — Yesterday and Last 2 Weeks

Now
79 °F

Clear.


Feels Like: 83 °F
Forecast: 76 / 94 °F
Wind: No wind

Location: Siemreap

Current Time: Feb 22, 2017 at 2:16:45 am

Latest Report: Feb 22, 2017 at 1:30 am


Visibility: 5 mi

Pressure: 29.80 "Hg

Humidity: 100%

Dew Point: 79 °F

Location of BattambangLocation

Past Weather in Battambang — Graph

°F

Battambang Temperature Yesterday

Maximum temperature yesterday: 93 °F (at 1:30 pm)
Minimum temperature yesterday: 73 °F (at 2:30 am)
Average temperature yesterday: 84 °F

High & Low Weather Summary for the Past Weeks

 TemperatureHumidityPressure
High93 °F (Feb 20, 12:00 pm)100% (Feb 7, 2:30 am)30.12 "Hg (Feb 7, 2:30 am)
Low66 °F (Feb 13, 7:00 am)27% (Feb 15, 4:30 pm)29.71 "Hg (Feb 7, 4:30 pm)
Average81 °F62%29.90 "Hg
* Reported Feb 7 1:00 am — Feb 22 1:00 am, Battambang, Weather by CustomWeather, © 2017

Note: Actual official high and low records may vary slightly from our data, if they occured in-between our weather recording intervals... More about our weather records

Advertising

Battambang Weather History for the Previous 24 Hours

Scroll right to see more
 ConditionsComfort  
Time TempWeatherWind HumidityBarometerVisibility
1:00 am
Wed, Feb 22
79 °FClear.No wind100%29.83 "Hg5 mi
12:30 am81 °FClear.No wind100%29.83 "Hg5 mi
12:00 am79 °FClear.6 mph94%29.83 "Hg5 mi
11:30 pm
Tue, Feb 21
82 °FClear.3 mph79%29.83 "Hg5 mi
11:00 pm81 °FClear.No wind94%29.83 "Hg5 mi
10:00 pm82 °FClear.2 mph89%29.83 "Hg5 mi
9:30 pm82 °FClear.3 mph89%29.83 "Hg5 mi
9:00 pm82 °FClear.No wind84%29.80 "Hg5 mi
8:30 pm82 °FClear.No wind84%29.80 "Hg5 mi
8:00 pm84 °FClear.2 mph79%29.80 "Hg5 mi
7:30 pm84 °FClear.2 mph74%29.77 "Hg5 mi
7:00 pm86 °FClear.2 mph66%29.77 "Hg5 mi
6:30 pm86 °FClear.3 mph62%29.77 "Hg5 mi
6:00 pm88 °FPassing clouds.5 mph59%29.74 "Hg6 mi
5:30 pm90 °FPassing clouds.6 mph52%29.77 "Hg6 mi
5:00 pm91 °FPassing clouds.6 mph49%29.74 "HgN/A
4:30 pm91 °FPassing clouds.7 mph46%29.74 "HgN/A
4:00 pm91 °FPassing clouds.7 mph46%29.74 "HgN/A
3:30 pm93 °FPassing clouds.6 mph44%29.74 "HgN/A
3:00 pm91 °FScattered clouds.8 mph46%29.74 "HgN/A
2:30 pm91 °FScattered clouds.8 mph49%29.77 "HgN/A
2:00 pm75 °FScattered clouds.6 mph83%29.77 "HgN/A
1:30 pm93 °FScattered clouds.3 mph47%29.80 "HgN/A
1:00 pm91 °FScattered clouds.3 mph49%29.83 "HgN/A
12:30 pm91 °FPassing clouds.3 mph49%29.83 "HgN/A
12:00 pm91 °FPassing clouds.5 mph49%29.86 "HgN/A
11:30 am90 °FPassing clouds.2 mph55%29.86 "HgN/A
11:00 am88 °FPassing clouds.3 mph59%29.89 "HgN/A
10:30 am86 °FPassing clouds.3 mph66%29.89 "HgN/A
10:00 am84 °FClear.5 mph70%29.89 "Hg6 mi
9:30 am84 °FClear.5 mph70%29.89 "Hg5 mi
9:00 am82 °FClear.3 mph74%29.89 "Hg5 mi
8:30 am81 °FClear.5 mph84%29.89 "Hg4 mi
8:00 am77 °FFog.6 mph89%29.89 "Hg3 mi
7:30 am75 °FFog.5 mph94%29.86 "Hg3 mi
7:00 am73 °FFog.3 mph100%29.86 "Hg2 mi
2:30 am73 °FClear.No wind100%29.77 "Hg5 mi
2:00 am75 °FClear.No wind100%29.77 "Hg5 mi
Weather by CustomWeather, © 2017

See weather overviewHow to use our weather pages